This demonstration page uses our WeatherBlox Daily Observations layout. Learn more.

38.88101, -77.10428

Hourly Observations for April 5, 2020

Temp ( °F °C ) Dew Point ( °F °C ) Humidity (%) Winds ( mph kmh ) Pressure ( in mb ) Visibility ( mi km ) Precip ( " mm )
12:52 am 00:52 Cloudy 51 10.6 44 6.7 77 77 SSW 3 6 30.07 1018 10 16.0934 0 0
1:52 am 01:52 Mostly Cloudy 50 10 44 6.7 80 80 SW 3 6 30.07 1018 9 14.48406 0 0
2:52 am 02:52 Mostly Cloudy 50 10 46 7.8 86 86 S 5 7 30.07 1018 10 16.0934 0 0
3:52 am 03:52 Partly Cloudy 49 9.4 46 7.8 90 90 Calm 30.07 1018 10 16.0934 0 0
4:52 am 04:52 Mostly Cloudy 48 8.9 45 7.2 89 89 S 7 11 30.07 1018 10 16.0934 0 0
5:52 am 05:52 Mostly Cloudy 47 8.3 45 7.2 93 93 S 7 11 30.08 1019 10 16.0934 0 0
6:52 am 06:52 Partly Cloudy 47 8.3 45 7.2 93 93 SSW 7 11 30.09 1019 10 16.0934 0 0
7:52 am 07:52 Partly Cloudy 49 9.4 47 8.3 93 93 S 8 13 30.1 1019 10 16.0934 0 0
8:02 am 08:02 Partly Cloudy 49 9.4 47 8.3 93 93 S 8 13 30.1 1019 10 16.0934 0 0
8:52 am 08:52 Mostly Cloudy 49 9.4 47 8.3 93 93 S 8 13 30.11 1020 10 16.0934 0 0
9:52 am 09:52 Mostly Cloudy 53 11.7 48 8.9 83 83 S 9 15 30.11 1020 10 16.0934 0 0
10:52 am 10:52 Mostly Cloudy 56 13.3 48 8.9 75 75 S 7 11 30.11 1020 10 16.0934 0 0
11:49 am 11:49 Mostly Cloudy 61 16 48 9 63 63 S 9 15 30.1 1019 10 16.0934 0 0
11:52 am 11:52 Mostly Cloudy 60 15.6 48 8.9 65 65 SSE 10 17 30.1 1019 10 16.0934 0 0
12:52 pm 12:52 Mostly Cloudy 64 17.8 46 7.8 52 52 SSW 12 19 30.09 1019 10 16.0934 0 0
1:52 pm 13:52 Mostly Cloudy 64 17.8 48 8.9 56 56 S 8 13 30.06 1018 10 16.0934 0 0
2:52 pm 14:52 Mostly Cloudy 66 18.9 47 8.3 50 50 S 7 11 30.04 1017 10 16.0934 0 0
3:52 pm 15:52 Mostly Cloudy 65 18.3 49 9.4 56 56 SSE 7 11 30.02 1017 10 16.0934 0 0
4:52 pm 16:52 Mostly Cloudy 67 19.4 48 8.9 51 51 SE 5 7 30.01 1016 10 16.0934 0 0
5:52 pm 17:52 Mostly Cloudy 68 20 48 8.9 49 49 S 6 9 30 1016 10 16.0934 0 0
6:52 pm 18:52 Mostly Cloudy 65 18.3 49 9.4 56 56 SE 6 9 30.01 1016 10 16.0934 0 0
7:52 pm 19:52 Cloudy 65 18.3 48 8.9 54 54 Calm 30.01 1016 10 16.0934 0 0
8:52 pm 20:52 Cloudy 62 16.7 49 9.4 62 62 SSE 3 6 30.02 1017 10 16.0934 0 0
9:52 pm 21:52 Mostly Cloudy 59 15 52 11.1 78 78 SSE 3 6 30.03 1017 10 16.0934 0 0
10:52 pm 22:52 Cloudy 61 16.1 50 10 67 67 S 3 6 30.04 1017 10 16.0934 0 0
11:52 pm 23:52 Cloudy 59 15 50 10 72 72 SSW 6 9 30.03 1017 10 16.0934 0 0

Powered by AerisWeather